Ohiopyle, PA (15470)

8:00 AM EST on February 09, 2016 (GMT -0500)
Donna's Weather | | Change Station
CLOSE
Current Station
Personal Weather Station
Location: Markleysburg, PA
Elevation: 2306 ft
Nearby Weather Stations
Active Advisory: Winter Weather Advisory

Elev 2306 ft 39.77 °N, 79.50 °W | Updated 10 seconds ago

Snow
Snow
28.0 °F
Feels Like 28 °F
N
0.0
Wind Variable Wind from West
Gusts 0.0 mph

Today
High -- | Low -- °F
--% Chance of Precip.
Yesterday
High -- | Low -- °F
Precip. -- in
Pressure 29.46 in
Visibility 1.0 miles
Clouds Overcast 400 ft
Windchill 28 °F
Dew Point 23 °F
Humidity 82%
Rainfall 0.00 in
Snow Depth Not available.
7:18 AM 5:46 PM
New Moon, 1% visible
METAR K2G4 091250Z AUTO 25008KT 1SM BR OVC004 M03/M04 A2946 RMK AO1
Pressure 29.46 in
Visibility 1.0 miles
Clouds Overcast 400 ft
Windchill 28 °F
Dew Point 23 °F
Humidity 82%
Rainfall 0.00 in
Snow Depth Not available.
7:18 AM 5:46 PM
New Moon, 1% visible
METAR K2G4 091250Z AUTO 25008KT 1SM BR OVC004 M03/M04 A2946 RMK AO1

10-Day Weather Forecast

Almanac

Astronomy

Feb. 09, 2016 Rise Set
Actual Time
Civil Twilight
Nautical Twilight
Astronomical Twilight
Moon
Length of Visible Light
Length of Day
Tomorrow will be .
, % of the Moon is Illuminated

Today's Extremes

State Highs State Lows

Community

WunderPhotos

Upload Photos

1,891,589 photos uploaded!

WunderBlog® & News

Nearby

Air Quality

  Air Quality AQ Index Pollutant
Not available.

Snow Depth

Station Depth Elevation

Earthquake Activity

City Distance Mag. Time & Date
Minimum magnitude displayed is 2.5.

Coastal Water Temperatures

Place Temperature

Stations

Nearby Weather Stations

Station Location Temp. Windchill Dew Point Humidity Wind Precip. Elev Updated Type
                   

Watches & Warnings

Winter Weather Advisory
Issued: 3:13 AM EST Feb. 9, 2016 – National Weather Service

... Winter Weather Advisory remains in effect until 7 PM EST
Wednesday...

* snow accumulation... 4 to 8 inches.

* Period of most intense snow... through tonight.

* Snow ending... snow showers will continue into Wednesday before
gradually tapering down thereafter.

* Impacts... hazardous travel conditions are expected due to snow.

Precautionary/preparedness actions...

A Winter Weather Advisory for snow means that periods of snow
will cause primarily travel difficulties. Be prepared for snow
covered roads and limited visibilities... and use caution while
driving.